Regional Weather Roundup
Issued by NWS Wilmington, NC

Home | Current Version | Previous Version | Text Only | Print | Product List | Glossary On
Versions: 1 2 3 4 5 6 7 8 9 10 11 12 13 14 15 16 17 18 19 20 21 22 23 24 25 26 27 28 29 30 31 32 33 34 35 36 37 38 39 40 41 42 43 44 45 46 47 48 49 50
000
ASUS42 KILM 200310
RWRILM
RWRILM
REGIONAL HOURLY WEATHER ROUNDUP
NATIONAL WEATHER SERVICE WILMINGTON NC
1000 PM EST FRI DEC 19 2014

NOTE: "FAIR" INDICATES FEW OR NO CLOUDS BELOW 12,000 FEET WITH NO
SIGNIFICANT WEATHER AND/OR OBSTRUCTIONS TO VISIBILITY.

...............WFO WILMINGTON COUNTY WARNING AREA...............

......COASTAL NC AND SC COUNTIES......

CITY           SKY/WX    TMP DP  RH WIND       PRES   REMARKS
WILMINGTON     CLOUDY    44  34  67 NE6       30.19S
SOUTHPORT      MOCLDY    45  38  75 NE3       30.18S
N MYRTLE BEACH MOCLDY    43  39  86 NE6       30.17R
MYRTLE BEACH   CLEAR     46  39  76 N6        30.18R

......INLAND NC AND SC COUNTIES.......

CITY           SKY/WX    TMP DP  RH WIND       PRES   REMARKS
LUMBERTON      MOCLDY    41  34  76 CALM      30.18R
ELIZABETHTOWN  CLOUDY    44  32  64 CALM      30.19R
WHITEVILLE     CLOUDY    46  32  59 CALM      30.18R
FLORENCE       MOCLDY    46  35  65 CALM      30.16S
DARLINGTON     PTCLDY    41  34  75 CALM      30.18S

....................REST OF NORTH CAROLINA......................

.........EASTERN NC.........

CITY           SKY/WX    TMP DP  RH WIND       PRES   REMARKS
CAPE HATTERAS  PTCLDY    41  34  76 NE3       30.21R
JACKSONVILLE   CLOUDY    37  30  75 NE7       30.21R WCI  32
MOREHEAD CITY  PTCLDY    41  34  76 NE5       30.21S
KENANSVILLE    CLOUDY    38  33  82 CALM      30.22R
NEW BERN       MOCLDY    41  32  70 CALM      30.22S
ELIZABETH CITY PTCLDY    40  31  70 NE6       30.23R

.........CENTRAL NC.........

CITY           SKY/WX    TMP DP  RH WIND       PRES   REMARKS
RALEIGH DURHAM CLOUDY    41  27  57 CALM      30.20S
ROCKY MOUNT    MOCLDY    35  31  85 CALM      30.22R
ROANOKE RAPIDS NOT AVBL
FAYETTEVILLE   CLOUDY    41  32  70 NE5       30.19R
HOFFMAN        MOCLDY    37  35  90 NE2       30.21R

.........WESTERN NC.........

CITY           SKY/WX    TMP DP  RH WIND       PRES   REMARKS
CHARLOTTE      CLOUDY    48  27  44 NE5       30.16S
GREENSBORO     CLOUDY    41  25  53 CALM      30.17F
HICKORY        NOT AVBL
BOONE          NOT AVBL
ASHEVILLE      NOT AVBL

.....................REST OF SOUTH CAROLINA.....................

.........EASTERN SC.........

CITY           SKY/WX    TMP DP  RH WIND       PRES   REMARKS
CHARLESTON     MOCLDY    50  43  77 CALM      30.15S
BEAUFORT MCAS  MOCLDY    52  48  86 NE3       30.14S
HILTON HEAD    MOCLDY    52  52 100 CALM      30.16R

.........CENTRAL SC.........

CITY           SKY/WX    TMP DP  RH WIND       PRES   REMARKS
COLUMBIA       CLOUDY    50  40  68 CALM      30.15S
ORANGEBURG     CLOUDY    50  42  74 E5        30.14S
SUMTER SHAW    CLOUDY    46  36  67 E2        30.15R

.........WESTERN SC.........

CITY           SKY/WX    TMP DP  RH WIND       PRES   REMARKS
GREENVILLE     NOT AVBL
ROCK HILL      CLOUDY    41  34  76 CALM      30.15S
ANDERSON       CLOUDY    46  38  73 CALM      30.15R
CLEMSON        NOT AVBL
GREENWOOD      MOCLDY    46  38  73 CALM      30.16R


...................COASTAL AND OFFSHORE REPORTS..................

................LOCAL PIERS AND NC RESERVE................


STATION/POSITION TIME  SKY/WX   TEMP    WIND        PRES    VSBY
                                AIR SEA DIR/SP/G
                 (UTC)          (F)     (DEG/KT/KT) (MB)    (MI)
JOHNY MRCER PIER 0300            50 57   30/  8/ 11 1021.3S
NC RESRV MASNBRO 0200            46     350/  1     1022.0S
OCEAN CREST PIER 0300            47 55   20/  5/  6 1021.0S
SPRINGMAID  PIER 0300            52 54   30/  6/  7 1021.2S


................COASTAL AND OFFSHORE BUOYS................


STATION/POSITION TIME  SKY/WX   TEMP    WIND        PRES    VSBY
                                AIR SEA DIR/SP/G
                 (UTC)          (F)     (DEG/KT/KT) (MB)    (MI)
DIMNDSHOAL 41025 0300            46                 1023.0R
WVE H/P(F/S)=  3/ 6

CAPE LOOKOUT     0200            47      20/  7/  9 1022.4R
ONSLOW BAY 41036 0300            52 61   20/ 10/ 12 1022.7F
WVE H/P(F/S)=  1/10 SWL H/P/D(F/S/D)=  2/100/10

5 WRITEBCH 41038 NOT AVBL
MASONBORO  41110 0300               55                N/A
WVE H/P(F/S)=  2/11 WND WVE H/P(F/S)=  2/ 3

WILM HARBR 41108 0300               55                N/A
WVE H/P(F/S)=  1/11 WND WVE H/P(F/S)=  2/ 9

27WRITEBCH 41037 0200            52 66   70/ 10/ 12 1022.9R
FRYING PAN 41013 0300            57 60   50/ 10/ 14 1022.2R
WVE H/P(F/S)=  2/10 WND WVE H/P(F/S)=  2/ 4 SWL H/P/D(F/S/D)=  2/110/10

SUNST NRSH 41024 0200            52      60/  6/  6   N/A
CAPRS NRSH 41029 0200            56      60/ 12/ 14   N/A
EDISTO     41004 0300            64 68   30/  4/  8 1020.2R
WVE H/P(F/S)=  2/10 WND WVE H/P(F/S)=  2/ 4 SWL H/P/D(F/S/D)=  2/10



..........OFFSHORE BUOYS BEYOND 100 NM OFFSHORE...........
.....IN A TRIANGLE---HAT TO BERMUDA TO BAHAMAS TO HAT.....


STATION/POSITION TIME  SKY/WX   TEMP    WIND        PRES    VSBY
                                AIR SEA DIR/SP/G
                 (UTC)          (F)     (DEG/KT/KT) (MB)    (MI)
150E HAT   41001 NOT AVBL
W BERMUDA  41048 0155            67 72  340/ 10/ 14 1018.6
WVE H/P(F/S)=  5/ 8 WND WVE H/P(F/S)=  2/ 4 SWL H/P/D(F/S/D)=  5/350/ 8

ATLANTIC S 41049 0235            74 77  240/  8/ 10 1018.4F
WVE H/P(F/S)=  5/10 WND WVE H/P(F/S)=  2/ 4 SWL H/P/D(F/S/D)=  5/ 40/10

E BAHAMAS  41046 0234            77 80  100/ 12/ 14 1018.7F
WVE H/P(F/S)=  4/10 WND WVE H/P(F/S)=  2/ 5 SWL H/P/D(F/S/D)=  3/ 40/10

NE BAHAMAS 41047 0239            74 78   40/  4/  6 1019.4S
WVE H/P(F/S)=  3/11 WND WVE H/P(F/S)=  2/ 4 SWL H/P/D(F/S/D)=  3/ 50/11

120E CANVRL41010 0300            71 76   80/  6/  8 1019.7F
WVE H/P(F/S)=  2/10 SWL H/P/D(F/S/D)=  2/ 90/10


END



USA.gov is the U.S. government's official web portal to all federal, state and local government web resources and services.